Location: Unspecified
(0.0000°N, 0.0000°E)
Time: 04:52:58
(UTC+00:00)

deb S5M - Pass Details

Date: 20 June 2024
Orbit: 774 x 867 km, 82.5° (Epoch: 17 July)

Event Time Altitude Azimuth Distance (km) Brightness Sun altitude
Exits shadow 03:56:53 25° 152° (SSE) 1,576 ? -28.4°
Maximum altitude 03:59:38 46° 93° (E) 1,089 ? -27.8°
Drops below altitude 10° 04:04:52 10° 21° (NNE) 2,435 ? -26.6°
Sets 04:07:23 0° 15° (NNE) 3,382 ? -26.0°
